Regional Weather Roundup
Issued by NWS

Home | Current Version | Previous Version | Graphics & Text | Print | Product List | Glossary On
Versions: 1 2 3 4 5 6 7 8 9 10 11 12 13 14 15 16 17 18 19 20 21 22 23 24 25 26 27 28 29 30 31 32 33 34 35 36 37 38 39 40 41 42 43 44 45 46 47 48 49 50
000
ASUS43 KDMX 181301
RWRIA

WEATHER ROUNDUP FOR IOWA
NATIONAL WEATHER SERVICE DES MOINES IA
700 AM CST WED JAN 18 2017

NOTE: "FAIR" INDICATES FEW OR NO CLOUDS BELOW 12,000 FEET WITH NO
SIGNIFICANT WEATHER AND/OR OBSTRUCTIONS TO VISIBILITY.

* - THESE STATIONS ARE NOT NWS STATIONS...THUS NOT UNDER NWS
QUALITY CONTROL.  THEY ALSO DO NOT REPORT WEATHER SUCH
AS PRECIPITATION OR FOG.

IAZ001>003-012>014-020>022-031>034-043>046-181400-
   NORTHWEST IOWA

CITY           SKY/WX    TMP DP  RH WIND       PRES   REMARKS
CARROLL *      CLEAR     30  30 100 SW7       30.02S WCI  23
CHEROKEE *     CLOUDY    28  28  99 CALM      29.99R
DENISON *      CLEAR     28  28 100 S6        29.99F WCI  22
LE MARS *      CLOUDY    28  27  93 S9        29.97R WCI  20
ORANGE CITY *  CLOUDY    27  27 100 S9        29.94R WCI  17
SHELDON *      CLOUDY    27  28 100 S8        29.93R WCI  18
SIOUX CITY     CLEAR     25  23  92 E6        29.97S WCI  18
SPENCER        CLOUDY    27  24  89 S6        29.95R WCI  20
STORM LAKE *   CLOUDY    30  28  93 SW13      29.98R WCI  20
$$

IAZ055>058-069>071-079>083-090>094-181400-
   SOUTHWEST IOWA

CITY           SKY/WX    TMP DP  RH WIND       PRES   REMARKS
ATLANTIC *     CLOUDY    27  27 100 S5        30.06S WCI  21
AUDUBON *      CLOUDY    27  23  86 CALM      30.04F
CLARINDA *     CLOUDY    27  27 100 S6        30.11S WCI  20
COUNCIL BLFS * CLEAR     28  28 100 S9        30.03F WCI  20
CRESTON *      CLEAR     25  25 100 S10       30.09R WCI  15
HARLAN  *      CLOUDY    27  27 100 S7        30.07S WCI  19
LAMONI         FOG       28  27  96 S7        30.10R VSB 1/4 WCI  21
RED OAK *      CLOUDY    25  25 100 S5        30.08R WCI  19
SHENANDOAH *   CLOUDY    27  25  93 S6        30.09S WCI  20
$$

IAZ047>049-059>061-072>074-084-181400-
   CENTRAL IOWA

CITY           SKY/WX    TMP DP  RH WIND       PRES   REMARKS
AMES           CLOUDY    31  31 100 S9        30.08R FOG     WCI  23
ANKENY *       FOG       30  30 100 S9        30.10S VSB 3/4 WCI  22
BOONE *        CLOUDY    30  30 100 S5G13     30.04F FOG     WCI  25
CHARITON *     FOG       30  30 100 SW9       30.11R VSB 1/4 WCI  22
DES MOINES     CLOUDY    31  30  96 S6        30.08F FOG     WCI  25
GRINNELL*      CLOUDY    31  31  98 SW12      30.10R FOG     WCI  22
KNOXVILLE *    FOG       32  30  93 W5        30.08F VSB 1   WCI  27
MARSHALLTOWN   CLOUDY    30  30 100 S10       30.07S FOG     WCI  21
NEWTON *       FOG       30  30 100 SW9G18    30.09S VSB 3/4 WCI  22
PELLA *        CLOUDY    32  31  96 SW5       30.12S FOG     WCI  27
PERRY *          N/A     31  31 100 S6        30.06S WCI  25
$$

IAZ004>006-015-016-023>025-035-036-181400-
   NORTH CENTRAL IOWA

CITY           SKY/WX    TMP DP  RH WIND       PRES   REMARKS
ALGONA *       CLOUDY    30  30 100 S13       29.97S FOG     WCI  20
CLARION *      FOG       30  30 100 S13       30.02S VSB<1/4 WCI  20
ESTHERVILLE    CLOUDY    23  22  96 S8        29.93F FOG     WCI  14
FORT DODGE *   CLEAR     28  27  93 MISG      30.03R
MASON CITY     FOG       29  28  96 S9        30.02S VSB 1/2 WCI  20
FOREST CITY *  FOG       30  30 100 S7        29.99S VSB 1/2 WCI  23
WEBSTER CITY * CLOUDY    28  28 100 S13       30.02R FOG     WCI  18
IOWA FALLS *   FOG       31  29  96 S6        30.05S VSB 1/4 WCI  25
$$

IAZ007>011-017>019-026>030-037>042-050>054-066-181400-
   NORTHEAST IOWA

CITY           SKY/WX    TMP DP  RH WIND       PRES   REMARKS
CEDAR RAPIDS   CLOUDY    29  27  92 S6        30.10S WCI  23
CHARLES CITY * CLOUDY    28  28 100 S10       30.04F FOG     WCI  19
CLINTON *      CLOUDY    32  31  96 W9        30.13S WCI  24
DECORAH *      CLOUDY    28  28 100 VRB7      30.04F WCI  21
DUBUQUE        CLOUDY    30  30 100 SW10      30.09S FOG     WCI  21
MONTICELLO *   CLOUDY    32  30  93 W7        30.11R WCI  26
OELWEIN *      CLOUDY    28  28 100 SW8       30.08R FOG     WCI  20
WATERLOO       CLOUDY    29  27  92 S5        30.07F FOG     WCI  24
$$

IAZ064-065-067-068-078-181400-
   EAST CENTRAL IOWA

CITY           SKY/WX    TMP DP  RH WIND       PRES   REMARKS
DAVENPORT      CLOUDY    32  29  88 W9        30.13S WCI  24
IOWA CITY      CLOUDY    32  29  88 CALM      30.13S
MUSCATINE *    CLOUDY    32  28  86 W3        30.14F
QUAD CITIES    CLOUDY    33  29  85 W9        30.13R WCI  25
$$

IAZ062-063-075>077-085>089-095>099-181400-
   SOUTHEAST IOWA

CITY           SKY/WX    TMP DP  RH WIND       PRES   REMARKS
BURLINGTON     CLOUDY    31  30  96 SW8       30.14R WCI  23
FAIRFIELD *    CLOUDY    32  30  93 SW7G13    30.13R WCI  26
FORT MADISON * CLOUDY    32  30  93 SW6       30.16R WCI  26
KEOKUK *       CLOUDY    34  32  93 SW6       30.16R WCI  29
OSKALOOSA *    CLOUDY    31  30  96 W9        30.12S FOG     WCI  23
OTTUMWA        CLOUDY    32  29  88 W7        30.11R WCI  26
WASHINGTON *   CLOUDY    28  28 100 S5        30.14S FOG     WCI  23
$$

ABBREVIATIONS USED IN REMARKS
   TC - TEMPERATURES IN CELSIUS
  WCI - WIND CHILL INDEX
   HX - HEAT INDEX
  VSB - VISIBILITY
$$





USA.gov is the U.S. government's official web portal to all federal, state and local government web resources and services.